Regional Weather Roundup
Issued by NWS

Home | Current Version | Previous Version | Text Only | Print | Product List | Glossary On
Versions: 1 2 3 4 5 6 7 8 9 10 11 12 13 14 15 16 17 18 19 20 21 22 23 24 25 26 27 28 29 30 31 32 33 34 35 36 37 38 39 40 41 42 43 44 45 46 47 48 49 50
000
ASUS46 KPQR 180910
RWROR

OREGON REGIONAL WEATHER ROUNDUP
NATIONAL WEATHER SERVICE PORTLAND OR
100 AM PST SAT NOV 18 2017

NOTE: "FAIR" INDICATES FEW OR NO CLOUDS BELOW 12,000 FEET WITH
NO SIGNIFICANT WEATHER AND/OR OBSTRUCTIONS TO VISIBILITY.

ORZ001>013-181000-
NORTHWEST OREGON


CITY           SKY/WX    TMP DP  RH WIND       PRES   REMARKS
ASTORIA        MOCLDY    43  42  97 SE3       30.31F
NEWPORT        MOCLDY    41  39  93 E6        30.36F
PORTLAND       MOCLDY    46  40  79 S5        30.37F
VANCOUVER WA   PTCLDY    45  42  89 CALM      30.36F
SCAPPOOSE      PTCLDY    36  36 100 CALM      30.36S
HILLSBORO      FOG       35  34  96 CALM      30.36S VSB 1/4
AURORA         PTCLDY    41  40  96 CALM      30.37F FOG
MCMINNVILLE    MOCLDY    39  39 100 NW3       30.37S FOG
SALEM          CLEAR     38  35  89 SW3       30.35F
CORVALLIS      FOG       36  36 100 NW3       30.37F VSB 3/4
EUGENE         CLEAR     32  32 100 SW6       30.36F WCI  26
$$

ORZ021-028-181000-
SOUTHWEST OREGON


CITY           SKY/WX    TMP DP  RH WIND       PRES   REMARKS
NORTH BEND     CLEAR     40  39  97 SE7       30.34F
BROOKINGS      CLEAR     39  37  92 CALM      30.28F
ROSEBURG       FOG       37  37 100 CALM      30.35F VSB 1/4
SEXTON SUMMIT  CLEAR     32  27  81 SE12      30.23F WCI  23
GRANTS PASS    LGT RAIN  36  36 100 CALM      30.38F VSB 1/4
MEDFORD        CLEAR     31  30  96 CALM      30.33F
$$

ORZ014>016-041-181000-
COLUMBIA GORGE


CITY           SKY/WX    TMP DP  RH WIND       PRES   REMARKS
TROUTDALE      MOCLDY    42  40  92 CALM      30.37S
HOOD RIVER     MOCLDY    37  36  93 S3        30.36S
THE DALLES     PTCLDY    41  37  86 SE3       30.37S
$$

ORZ029>031-041-044-049-050-061>064-502-503-505>511-181000-
EASTERN OREGON


CITY           SKY/WX    TMP DP  RH WIND       PRES   REMARKS
MADRAS         PTCLDY   N/A N/A N/A S5        30.35S
REDMOND        PTCLDY    20  18  92 E5        30.31F WCI  13
BEND           PTCLDY    28  21  74 S5        30.32S WCI  23
PRINEVILLE     PTCLDY    21  18  86 CALM      30.32F
KLAMATH FALLS  CLEAR     24  19  81 NE8       30.30F WCI  15
LAKEVIEW       CLEAR     17  15  92 NW8       30.31F WCI   7
HERMISTON      MOCLDY    39  33  79 SW6       30.34R WCI  35
PENDLETON      CLOUDY    40  29  64 S8        30.33R WCI  34
JOHN DAY       CLEAR     32  22  67 E6        30.33S WCI  26
MEACHAM        CLOUDY    31  27  85 CALM      30.30R
LA GRANDE      MOCLDY    35  24  64 SE9       30.34R WCI  28
BAKER CITY     PTCLDY    25  19  78 N3        30.33R
BURNS          CLEAR     19  17  92 N3        30.35R
ROME             N/A     28  20  71 VRB3      30.34S
ONTARIO        NOT AVBL
$$



USA.gov is the U.S. government's official web portal to all federal, state and local government web resources and services.